Location: Burgberg
(50.1428°N, 11.0671°E)
Time: 21:28:54
(UTC+00:00)

Cosmos 1452 Rocket - Pass Details

Date: 26 January 2020
Orbit: 768 x 774 km, 74.1° (Epoch: 18 February)

Event Time Altitude Azimuth Distance (km) Brightness Sun altitude
Exits shadow 05:35:17 - 334° (NNW) 2,771 6.0 -13.2°
Reaches altitude 10° 05:36:26 10° 334° (NNW) 2,324 5.6 -13.1°
Maximum altitude 05:41:42 77° 249° (WSW) 794 3.5 -12.2°
Drops below altitude 10° 05:46:56 10° 164° (SSE) 2,305 6.4 -11.4°
Sets 05:49:17 0° 163° (SSE) 3,226 7.2 -11.1°
